Weather History for Ireland West Airport Knock, Ireland

Change the Weather History Date:

Sunday, April 28, 2013

  Actual Average Record
Temperature  
Mean Temperature 44 °F -  
Max Temperature 49 °F - - ()
Min Temperature 40 °F - - ()
Degree Days  
Heating Degree Days 20    
Moisture  
Dew Point 38 °F    
Average Humidity 77    
Maximum Humidity 100    
Minimum Humidity 57    
Precipitation  
Precipitation 0.08 in - - ()
Sea Level Pressure  
Sea Level Pressure 29.91 in    
Wind  
Wind Speed 16 mph ()    
Max Wind Speed 29 mph    
Max Gust Speed 45 mph    
Visibility 6.1 miles    
Events Rain , Snow    
T = Trace of Precipitation, MM = Missing Value Source: Averaged Metar Reports

Daily Weather History Graph

Daily Weather History Graph

Search for Another Location

Airport:

Trip Planner

Search our weather history database for the weather conditions in past years. The results will help you decide how hot, cold, wet, or windy it might be!

Date:

Astronomy

Apr. 28, 2013 Rise Set
Actual Time 6:05 AM IST 9:01 PM IST
Civil Twilight 5:24 AM IST 9:42 PM IST
Nautical Twilight 4:31 AM IST 10:35 PM IST
Astronomical Twilight 3:22 AM IST 11:46 PM IST
Moon No Moon Rise 7:50 AM IST (4/28)
Length of Visible Light 16h 17m
Length of Day
14h 56m
Waning Gibbous, 90% of the Moon is Illuminated
Apr 28
Waning Gibbous
May 2
Last Quarter
May 10
New
May 18
First Quarter
May 25
Full

Hourly Weather History & Observations

Time (IST) Temp. Windchill Dew Point Humidity Pressure Visibility Wind Dir Wind Speed Gust Speed Precip Events Conditions
1:00 AM 42 °F - 37 °F 76% 30.09 in - SW 8.9 mph - -  
7:00 AM 44 °F - 44 °F 100% 29.96 in 1 mi WNW 15.7 mph - - Rain Light Rain
7:00 AM 44.6 °F 37.8 °F 44.6 °F 100% 29.92 in 1.2 mi WNW 15.0 mph - N/A Rain Light Rain
7:30 AM 44.6 °F 37.2 °F 42.8 °F 93% 29.92 in 1.9 mi WNW 17.3 mph - N/A   Light Drizzle
8:00 AM 44.6 °F 37.4 °F 41.0 °F 87% 29.92 in 6.2 mi WNW 16.1 mph - N/A   Mostly Cloudy
8:30 AM 44.6 °F 37.8 °F 41.0 °F 87% 29.92 in 6.2 mi WNW 15.0 mph - N/A   Light Drizzle
9:00 AM 44.6 °F 37.4 °F 39.2 °F 81% 29.92 in 6.2 mi WNW 16.1 mph - N/A   Mostly Cloudy
9:30 AM 44.6 °F 38.1 °F 39.2 °F 81% 29.92 in 6.2 mi WNW 13.8 mph - N/A   Mostly Cloudy
10:00 AM 44.6 °F 37.4 °F 39.2 °F 81% 29.92 in 6.2 mi WNW 16.1 mph - N/A   Mostly Cloudy
10:30 AM 46.4 °F 39.2 °F 39.2 °F 76% 29.92 in 6.2 mi WNW 18.4 mph - N/A   Mostly Cloudy
11:00 AM 46.4 °F 38.5 °F 37.4 °F 71% 29.89 in 6.2 mi WNW 21.9 mph 33.4 mph N/A Rain Light Rain Showers
11:30 AM 48.2 °F - 37.4 °F 66% 29.89 in 6.2 mi WNW 23.0 mph - N/A   Mostly Cloudy
12:00 PM 48.2 °F - 37.4 °F 66% 29.89 in 6.2 mi WNW 23.0 mph - N/A   Mostly Cloudy
12:30 PM 46.4 °F 37.7 °F 37.4 °F 71% 29.89 in 6.2 mi WNW 26.5 mph - N/A Rain Light Rain Showers
1:00 PM 46 °F - 40 °F 73% 29.93 in 7 mi WNW 22.4 mph - - Rain Light Rain Showers
1:00 PM 46.4 °F 38.3 °F 41.0 °F 81% 29.89 in 6.2 mi WNW 23.0 mph 36.8 mph N/A Rain Light Rain Showers
1:30 PM 46.4 °F 39.8 °F 39.2 °F 76% 29.89 in 6.2 mi WNW 16.1 mph - N/A   Mostly Cloudy
2:00 PM 48.2 °F - 37.4 °F 66% 29.89 in 6.2 mi West 18.4 mph 29.9 mph N/A   Mostly Cloudy
2:30 PM 48.2 °F - 35.6 °F 62% 29.89 in 6.2 mi WNW 21.9 mph 33.4 mph N/A Rain Light Rain Showers
3:00 PM 42.8 °F 33.5 °F 39.2 °F 87% 29.89 in 6.2 mi WNW 23.0 mph 34.5 mph N/A Rain Light Rain Showers
3:30 PM 42.8 °F 32.9 °F 41.0 °F 93% 29.89 in 6.2 mi WNW 26.5 mph 41.4 mph N/A Rain Light Rain Showers
4:00 PM 44.6 °F 36.6 °F 37.4 °F 76% 29.89 in 6.2 mi West 19.6 mph - N/A Rain Light Rain Showers
4:30 PM 46.4 °F 39.2 °F 37.4 °F 71% 29.89 in 6.2 mi WNW 18.4 mph 29.9 mph N/A   Mostly Cloudy
5:00 PM 48.2 °F - 35.6 °F 62% 29.86 in 6.2 mi WNW 21.9 mph - N/A   Scattered Clouds
5:30 PM 42.8 °F 32.5 °F 39.2 °F 87% 29.89 in 6.2 mi WNW 28.8 mph 44.9 mph N/A Rain Light Rain Showers
6:00 PM 46.4 °F 38.3 °F 32.0 °F 57% 29.89 in 6.2 mi WNW 23.0 mph - N/A   Scattered Clouds
6:30 PM 46.4 °F 38.3 °F 33.8 °F 62% 29.89 in 5.0 mi WNW 23.0 mph - N/A   Scattered Clouds
7:00 PM 40 °F - 35 °F 77% 29.93 in 19 mi WNW 22.4 mph - - Snow Light Snow Showers
7:00 PM 41.0 °F 31.4 °F 35.6 °F 81% 29.89 in 6.2 mi WNW 21.9 mph 41.4 mph N/A   Scattered Clouds